Location: Meanaryar
(48.4161°N, 4.7315°W)
Time: 01:11:01
(UTC+00:00)

ATLAS 2AS CENTAUR R/B - Visible Passes

Search period start: 24 January 2021 00:00
Search period end: 03 February 2021 00:00
Orbit: 943 x 1268 km, 63.7° (Epoch: 22 January)

Date Brightness Start Highest point End Pass type
(mag) Time Alt. Az. Time Alt. Az. Time Alt. Az.
24 Jan 4.3 18:55:30 10° WNW 19:02:04 28° NNW 19:06:55 15° NE visible
24 Jan 4.3 20:49:04 10° NW 20:54:21 27° N 20:54:21 27° N visible
24 Jan 5.2 22:40:43 10° NW 22:41:47 15° NW 22:41:47 15° NW visible
25 Jan 4.2 18:09:40 10° W 18:16:34 31° NNW 18:23:15 10° NE visible
25 Jan 4.2 20:03:41 10° NW 20:09:59 26° N 20:10:59 25° NNE visible
25 Jan 4.8 21:55:46 10° NW 21:58:25 22° NNW 21:58:25 22° NNW visible
26 Jan 4.3 19:18:08 10° NW 19:24:24 25° N 19:27:37 19° NNE visible
26 Jan 4.3 21:10:46 10° NW 21:15:03 28° N 21:15:03 28° N visible
26 Jan 5.4 23:02:02 10° NW 23:02:29 12° NW 23:02:29 12° NW visible
27 Jan 4.3 18:32:25 10° WNW 18:38:49 26° N 18:44:15 13° NE visible
27 Jan 4.0 20:25:39 10° NW 20:31:42 30° N 20:31:42 30° N visible
27 Jan 4.9 22:17:07 10° NW 22:19:08 20° NW 22:19:08 20° NW visible
28 Jan 4.3 17:46:36 10° WNW 17:53:17 29° NNW 17:59:45 10° NE visible
28 Jan 4.1 19:40:23 10° NW 19:46:45 27° N 19:48:21 25° NNE visible
28 Jan 4.4 21:32:11 10° NW 21:35:47 28° NNW 21:35:47 28° NNW visible
29 Jan 4.2 18:54:55 10° NW 19:01:11 25° N 19:05:00 17° NE visible
29 Jan 3.9 20:47:13 10° NW 20:52:27 34° N 20:52:27 34° N visible
29 Jan 5.1 22:38:28 10° NW 22:39:53 17° NW 22:39:53 17° NW visible
30 Jan 4.3 18:09:18 10° WNW 18:15:36 25° N 18:21:40 10° NE visible
30 Jan 3.8 20:02:11 10° NW 20:08:58 33° NNE 20:09:08 33° NNE visible
30 Jan 4.5 21:53:31 10° NW 21:56:34 27° NW 21:56:34 27° NW visible
31 Jan 3.9 19:17:00 10° NW 19:23:30 28° NNE 19:25:50 24° NE visible
31 Jan 3.9 21:08:35 10° NW 21:13:17 38° NNW 21:13:17 38° NNW visible
31 Jan 5.3 23:00:03 10° NW 23:00:43 13° NW 23:00:43 13° NW visible
01 Feb 4.2 18:31:40 10° NW 18:37:58 26° N 18:42:34 15° NE visible
01 Feb 3.4 20:23:39 10° NW 20:30:01 44° NNE 20:30:01 44° NNE visible
01 Feb 4.7 22:14:55 10° NW 22:17:27 23° NW 22:17:27 23° NW visible
02 Feb 4.2 17:46:08 10° NW 17:52:23 25° N 17:58:23 10° NE visible
02 Feb 3.5 19:38:40 10° NW 19:45:38 36° NNE 19:46:47 35° NE visible
02 Feb 4.0 21:29:56 10° NW 21:34:13 37° NW 21:34:13 37° NW visible
